This is the latest recevied weather packets stored in our database for station/object KI2K. If no packets are shown the sender has not sent any weather packets the latest 10 day(s).
| Time | Temp. | Humidity | Pressure | Rain* | Wind** | Luminosity | Snow |
|---|---|---|---|---|---|---|---|
| 1777452635 | 12.22° C | 99% | 1011.1 hPa | 1.78 mm | - | 0 W/m² | - |
| 1777452330 | 12.22° C | 99% | 1011.3 hPa | 4.32 mm | - | 0 W/m² | - |
| 1777452026 | 12.22° C | 99% | 1011.1 hPa | 8.89 mm | - | 0 W/m² | - |
| 1777451722 | 12.22° C | 99% | 1010.8 hPa | 10.67 mm | - | 0 W/m² | - |
| 1777451418 | 12.78° C | 98% | 1011.4 hPa | 7.87 mm | - | 0 W/m² | - |
| 1777451113 | 12.78° C | 98% | 1011.4 hPa | 1.78 mm | - | 0 W/m² | - |
| 1777450810 | 12.78° C | 98% | 1011.3 hPa | 0 mm | - | 0 W/m² | - |
| 1777450505 | 12.78° C | 97% | 1011.1 hPa | 1.27 mm | - | 0 W/m² | - |
| 1777450202 | 12.78° C | 97% | 1011 hPa | 3.05 mm | - | 0 W/m² | - |
| 1777449898 | 12.78° C | 96% | 1011.1 hPa | 1.78 mm | - | 0 W/m² | - |
| 1777449594 | 12.78° C | 96% | 1011.2 hPa | 1.27 mm | - | 0 W/m² | - |
| 1777449290 | 12.78° C | 96% | 1011.1 hPa | 1.27 mm | - | 0 W/m² | - |
| 1777448985 | 12.78° C | 95% | 1011.2 hPa | 0 mm | - | 0 W/m² | - |
| 1777448683 | 12.78° C | 95% | 1011.4 hPa | 0 mm | - | 0 W/m² | - |
| 1777448380 | 12.78° C | 95% | 1011.3 hPa | 0 mm | - | 0 W/m² | - |
| 1777448076 | 12.78° C | 95% | 1011.1 hPa | 0 mm | - | 0 W/m² | - |
| 1777447771 | 12.78° C | 94% | 1011.1 hPa | 0 mm | - | 0 W/m² | - |
| 1777447468 | 12.78° C | 94% | 1010.9 hPa | 0 mm | - | 0 W/m² | - |
| 1777447164 | 12.78° C | 94% | 1011 hPa | 0 mm | - | 0 W/m² | - |
| 1777446863 | 13.33° C | 93% | 1010.9 hPa | 0 mm | - | 0 W/m² | - |
| 1777446560 | 13.33° C | 93% | 1010.8 hPa | 0 mm | - | 0 W/m² | - |
| 1777446256 | 13.33° C | 92% | 1011 hPa | 0 mm | - | 0 W/m² | - |
| 1777445954 | 13.33° C | 91% | 1011.1 hPa | 0 mm | - | 0 W/m² | - |
| 1777445649 | 13.33° C | 91% | 1011.1 hPa | 0 mm | - | 0 W/m² | - |
| 1777445345 | 13.33° C | 91% | 1011.2 hPa | 0 mm | - | 0 W/m² | - |
* Rain latest hour (hover to see other rain measurements)
** Current wind speed in m/s (hover to see current wind gust speed)